This demonstration page uses our WeatherBlox Daily Observations layout. Learn more.

38.89511, -77.03637

Hourly Observations for January 25, 2015

Temp ( °F °C ) Dew Point ( °F °C ) Humidity (%) Winds ( mph kmh ) Pressure ( in mb ) Visibility ( mi km ) Precip ( " mm )
12:52 am 00:52 Cloudy 41 5 27 -3 57 57 W 8 13 29.71 1006 10 16.09344 0 0
1:52 am 01:52 Cloudy 39 4 27 -3 61 61 SSW 6 9 29.74 1007 10 16.09344 0 0
2:52 am 02:52 Cloudy 41 5 27 -3 57 57 W 10 17 29.74 1007 10 16.09344 0 0
3:52 am 03:52 Mostly Cloudy 39 4 27 -3 61 61 WSW 5 7 29.74 1007 10 16.09344 0 0
4:52 am 04:52 Partly Cloudy 37 3 27 -3 65 65 S 9 15 29.77 1008 10 16.09344 0 0
5:52 am 05:52 Mostly Cloudy 37 3 27 -3 65 65 WSW 6 9 29.8 1009 10 16.09344 0 0
6:52 am 06:52 Cloudy 39 4 27 -3 61 61 N 6 9 29.85 1011 10 16.09344 0 0
7:52 am 07:52 Mostly Cloudy 39 4 27 -3 61 61 SSW 6 9 29.83 1010 10 16.09344 0 0
8:52 am 08:52 Mostly Cloudy 43 6 27 -3 53 53 W 7 11 29.83 1010 10 16.09344 0 0
9:52 am 09:52 Mostly Cloudy 46 8 28 -2 50 50 SW 8 13 29.85 1011 10 16.09344 0 0
10:52 am 10:52 Mostly Cloudy 52 11 28 -2 41 41 W 7 11 29.85 1011 10 16.09344 0 0
11:52 am 11:52 Mostly Cloudy 52 11 28 -2 41 41 WNW 14 22 29.85 1011 10 16.09344 0 0
12:47 pm 12:47 Mostly Cloudy 48 9 30 -1 50 50 S 8 13 29.83 1010 10 16.09344 0 0
12:52 pm 12:52 Mostly Cloudy 48 9 32 0 54 54 S 7 11 29.83 1010 10 16.09344 0 0
1:52 pm 13:52 Mostly Cloudy 50 10 30 -1 47 47 SW 8 13 29.83 1010 10 16.09344 0 0
2:52 pm 14:52 Mostly Cloudy 50 10 30 -1 47 47 SW 7 11 29.83 1010 10 16.09344 0 0
3:52 pm 15:52 Cloudy 48 9 30 -1 50 50 S 10 17 29.83 1010 10 16.09344 0 0
4:52 pm 16:52 Cloudy 48 9 30 -1 50 50 S 5 7 29.83 1010 10 16.09344 0 0
5:52 pm 17:52 Cloudy 46 8 30 -1 53 53 SSE 5 7 29.85 1011 10 16.09344 0 0
6:52 pm 18:52 Cloudy 48 9 30 -1 50 50 ESE 3 6 29.85 1011 10 16.09344 0 0
7:52 pm 19:52 Cloudy 48 9 30 -1 50 50 Calm 29.85 1011 10 16.09344 0 0
8:52 pm 20:52 Cloudy 48 9 30 -1 50 50 Calm 29.88 1012 10 16.09344 0 0
9:52 pm 21:52 Cloudy 46 8 30 -1 53 53 SSE 5 7 29.85 1011 10 16.09344 0 0
10:52 pm 22:52 Cloudy 46 8 32 0 57 57 S 6 9 29.85 1011 10 16.09344 0 0
11:52 pm 23:52 Cloudy 46 8 30 -1 53 53 SSE 3 6 29.85 1011 10 16.09344 0 0

Powered by AerisWeather